SCP
0 0 0 0 0 -0 0 0 0 0 0 0 0 0 0 0 0 0 0 0 0 1 1 1 1 1 1 1 1 1 0 0
0 0 -0 0 0 0 0 0 0 0 0 0 0 0 0 0 0 0 0 0 2 2 2 1 1 1 1 1 1 1 0 0
0 0 -0 0 0 0 0 0 0 0 0 0 0 0 0 0 0 0 0 0 0 1 0 0 0 0 0 0 0 0 0 0
-0 0 0 0 0 0 0 0 0 0 0 0 0 0 0 0 0 0 0 0 0 0 0 0 0 0 0 0 0 0 0 0
-0 -0 0 0 0 0 -0 0 0 0 0 0 0 0 0 0 0 0 0 0 0 0 0 1 0 0 0 0 0 0 0 0
-0 -0 0 0 0 0 0 0 0 0 0 0 0 0 0 0 0 0 0 0 0 0 0 0 0 0 0 0 0 0 0 0
-0 -0 -0 -0 0 0 0 0 0 0 0 0 0 0 0 0 0 0 0 0 0 0 0 0 0 0 0 0 0 0 0 0
0 -0 -0 0 0 0 0 0 0 0 0 0 0 0 0 0 0 0 0 0 0 0 0 0 0 0 0 0 0 0 0 0
0 0 0 0 0 0 0 0 0 0 0 0 0 0 0 0 0 0 0 0 0 0 0 0 0 0 0 0 0 0 0 0
0 0 0 0 0 -0 0 0 0 0 0 0 0 0 0 0 0 0 0 0 0 0 0 0 0 0 0 0 0 0 0 0
0 -0 0 0 0 0 0 0 0 0 0 0 0 0 0 0 0 0 0 0 0 0 0 0 0 0 0 0 0 0 0 0
-0 -0 0 0 0 0 0 0 0 0 0 0 0 0 0 0 0 0 0 0 0 0 0 0 0 0 0 0 0 0 0 0
-0 -0 0 0 0 0 0 0 0 0 0 0 0 0 0 0 0 0 0 0 0 0 0 0 0 0 0 0 0 0 0 0
-0 0 0 0 0 0 0 0 0 0 0 0 0 0 0 0 0 0 0 0 0 0 0 0 0 0 0 0 0 0 0 0
0 0 0 0 0 0 0 0 0 0 0 0 0 0 0 0 0 0 0 0 0 0 0 0 0 0 0 0 0 0 0 0
-0 -0 0 -0 0 0 0 0 0 0 0 0 0 0 0 0 0 0 0 0 0 0 0 0 0 0 0 0 0 0 0 0
0 -0 -0 0 0 0 0 -0 0 0 0 0 0 0 0 0 0 0 0 0 0 0 0 0 0 0 0 0 0 0 0 0
0 0 0 -0 -0 0 0 0 0 0 0 0 0 0 0 0 0 0 0 0 0 0 0 0 0 0 0 0 0 0 0 0
-0 -0 0 0 0 0 0 0 0 0 0 0 0 0 0 0 0 0 0 0 0 0 0 0 0 0 0 0 0 0 0 0
0 0 -0 0 -0 0 0 0 0 0 0 0 0 0 0 0 0 0 0 0 0 0 0 0 0 0 0 0 0 0 0 0
Wind_Speed_500mb
6 7 16 10 7 28 21 17 15 11 17 16 27 39 47 30 21 13 11 17 21 14 16 24 30 35 36 30 29 33 36 36
2 23 30 8 14 9 3 5 23 22 13 18 19 34 26 23 8 13 14 11 18 14 15 25 32 38 38 35 36 39 42 40
10 25 31 13 22 31 13 20 17 21 13 22 27 30 29 19 21 25 22 22 26 26 30 33 36 33 30 32 36 39 41 42
14 27 22 7 24 20 15 24 17 19 24 20 32 32 24 12 19 27 27 30 32 36 28 36 32 34 39 32 29 32 38 44
25 33 27 0 40 10 35 14 11 10 6 30 35 29 25 25 24 22 14 20 21 23 21 25 23 32 32 36 33 36 33 35
27 23 34 10 8 28 28 15 10 12 10 15 43 38 29 29 16 4 10 14 15 11 19 29 32 38 36 33 36 35 34 31
35 31 26 39 12 24 34 6 22 27 25 30 55 40 26 22 13 13 14 22 24 19 31 40 44 32 25 27 32 33 39 47
32 33 27 32 27 28 27 36 15 35 32 34 39 32 25 27 21 26 35 28 23 28 39 45 36 17 23 26 32 41 46 37
43 54 60 24 29 42 32 9 8 41 39 40 35 28 27 28 31 36 31 28 29 33 43 44 39 28 27 32 32 39 37 44
59 61 55 12 40 41 36 12 10 12 21 33 36 37 35 28 19 26 23 22 26 36 36 40 37 30 26 28 28 35 46 31
66 60 36 35 36 42 31 15 8 6 13 23 27 39 36 29 31 28 28 23 25 33 36 34 36 31 30 28 30 33 22 23
60 53 32 33 40 34 35 29 22 23 27 30 33 39 40 39 37 35 26 23 30 27 27 25 33 31 36 29 31 27 25 23
45 40 27 50 20 15 37 32 39 37 36 36 38 41 44 45 48 45 35 31 25 22 14 19 31 38 40 34 34 33 27 25
21 23 48 32 28 22 30 28 39 50 41 48 49 50 44 49 50 43 35 24 23 24 18 22 28 28 27 28 30 31 29 26
27 37 42 24 36 29 43 36 51 38 49 57 46 50 50 50 44 39 31 20 20 23 15 21 28 25 23 20 25 27 24 25
34 41 37 32 22 13 45 50 52 58 50 50 44 60 57 48 42 35 26 19 18 15 17 21 21 26 21 21 23 27 24 23
43 45 39 17 13 17 18 37 24 37 42 32 52 64 56 48 42 33 22 17 14 8 19 19 20 19 16 23 24 24 25 24
44 35 15 36 44 17 18 23 36 50 54 30 45 66 58 52 43 34 23 14 10 11 14 11 14 17 22 24 25 22 24 23
36 41 29 9 10 12 15 19 38 53 50 36 65 73 64 54 47 35 22 16 11 15 10 9 17 21 24 18 21 16 20 21
43 33 13 5 10 6 10 19 18 27 37 65 72 66 63 58 49 34 20 18 14 18 5 5 14 24 25 22 26 14 22 22
Wind_Direction_500mb
204 211 234 247 228 314 8 113 129 109 116 110 134 130 151 164 164 212 266 284 275 265 267 288 298 301 300 293 282 277 274 276
235 259 271 234 296 15 22 4 166 124 115 100 157 153 159 159 188 160 216 230 230 245 274 296 302 301 295 282 271 269 269 274
260 266 264 267 349 8 353 325 129 155 108 105 138 154 161 171 167 189 211 233 247 263 293 306 309 306 309 296 280 274 272 271
276 281 303 255 39 296 330 319 82 54 108 143 159 171 166 172 172 189 217 241 271 271 281 304 310 311 313 311 304 300 289 278
279 289 309 74 27 312 283 240 83 97 81 144 166 166 173 185 196 203 229 267 271 274 305 296 294 303 303 306 308 311 307 286
279 284 286 298 203 197 257 131 162 179 144 179 175 178 184 201 214 311 277 237 233 249 276 282 290 300 301 309 309 309 309 309
269 277 284 330 11 305 334 228 281 204 167 169 174 189 193 180 212 251 230 193 198 248 277 285 296 301 299 300 305 298 300 309
260 273 292 305 329 332 329 304 281 121 142 168 184 196 187 181 196 218 169 186 243 269 293 298 308 284 289 299 293 290 297 301
261 264 275 292 315 300 293 289 15 163 176 187 185 192 190 209 228 211 207 240 258 282 295 314 315 308 283 264 279 286 285 294
255 262 252 280 296 285 278 260 41 142 184 194 192 196 204 203 202 215 212 227 261 290 302 311 319 321 303 265 264 280 293 292
263 271 252 280 266 267 266 284 270 147 180 198 212 210 215 208 218 213 220 248 274 293 307 320 324 336 329 312 282 286 285 285
261 272 259 257 261 271 253 253 231 230 217 214 218 211 205 198 215 228 239 259 283 292 320 318 328 319 313 317 315 287 278 273
270 268 264 258 252 258 257 242 254 242 221 222 212 218 217 216 221 227 237 261 279 301 308 300 305 307 304 309 310 303 285 278
259 269 266 245 252 237 254 243 253 243 212 219 229 220 214 210 211 221 227 249 267 290 288 285 302 312 315 307 310 307 299 285
263 254 263 243 254 214 228 242 263 232 230 241 234 207 198 196 205 215 220 249 257 281 288 293 309 326 328 332 330 320 309 295
256 254 259 259 242 203 213 225 242 256 243 243 208 189 185 192 201 210 222 253 262 287 298 307 319 331 318 329 336 345 334 310
251 247 252 321 285 216 225 257 240 268 280 255 203 178 182 192 196 205 215 243 263 276 285 312 335 345 343 333 329 333 349 329
272 276 126 229 250 236 223 237 250 255 258 253 170 167 178 186 195 202 213 228 230 264 274 342 348 344 347 334 322 335 342 354
260 276 284 244 233 237 253 264 288 256 247 179 170 170 175 182 191 191 203 213 238 225 275 329 340 343 353 336 340 329 354 355
254 265 256 266 270 289 291 294 298 266 178 165 165 173 178 182 180 189 198 210 197 235 209 289 345 351 358 356 348 327 338 348
Wind_Speed_850mb
6 7 16 10 7 28 21 17 15 11 17 16 27 39 47 30 21 13 11 17 21 14 16 24 30 35 36 30 29 33 36 36
2 23 30 8 14 9 3 5 23 22 13 18 19 34 26 23 8 13 14 11 18 14 15 25 32 38 38 35 36 39 42 40
10 25 31 13 22 31 13 20 17 21 13 22 27 30 29 19 21 25 22 22 26 26 30 33 36 33 30 32 36 39 41 42
14 27 22 7 24 20 15 24 17 19 24 20 32 32 24 12 19 27 27 30 32 36 28 36 32 34 39 32 29 32 38 44
25 33 27 0 40 10 35 14 11 10 6 30 35 29 25 25 24 22 14 20 21 23 21 25 23 32 32 36 33 36 33 35
27 23 34 10 8 28 28 15 10 12 10 15 43 38 29 29 16 4 10 14 15 11 19 29 32 38 36 33 36 35 34 31
35 31 26 39 12 24 34 6 22 27 25 30 55 40 26 22 13 13 14 22 24 19 31 40 44 32 25 27 32 33 39 47
32 33 27 32 27 28 27 36 15 35 32 34 39 32 25 27 21 26 35 28 23 28 39 45 36 17 23 26 32 41 46 37
43 54 60 24 29 42 32 9 8 41 39 40 35 28 27 28 31 36 31 28 29 33 43 44 39 28 27 32 32 39 37 44
59 61 55 12 40 41 36 12 10 12 21 33 36 37 35 28 19 26 23 22 26 36 36 40 37 30 26 28 28 35 46 31
66 60 36 35 36 42 31 15 8 6 13 23 27 39 36 29 31 28 28 23 25 33 36 34 36 31 30 28 30 33 22 23
60 53 32 33 40 34 35 29 22 23 27 30 33 39 40 39 37 35 26 23 30 27 27 25 33 31 36 29 31 27 25 23
45 40 27 50 20 15 37 32 39 37 36 36 38 41 44 45 48 45 35 31 25 22 14 19 31 38 40 34 34 33 27 25
21 23 48 32 28 22 30 28 39 50 41 48 49 50 44 49 50 43 35 24 23 24 18 22 28 28 27 28 30 31 29 26
27 37 42 24 36 29 43 36 51 38 49 57 46 50 50 50 44 39 31 20 20 23 15 21 28 25 23 20 25 27 24 25
34 41 37 32 22 13 45 50 52 58 50 50 44 60 57 48 42 35 26 19 18 15 17 21 21 26 21 21 23 27 24 23
43 45 39 17 13 17 18 37 24 37 42 32 52 64 56 48 42 33 22 17 14 8 19 19 20 19 16 23 24 24 25 24
44 35 15 36 44 17 18 23 36 50 54 30 45 66 58 52 43 34 23 14 10 11 14 11 14 17 22 24 25 22 24 23
36 41 29 9 10 12 15 19 38 53 50 36 65 73 64 54 47 35 22 16 11 15 10 9 17 21 24 18 21 16 20 21
43 33 13 5 10 6 10 19 18 27 37 65 72 66 63 58 49 34 20 18 14 18 5 5 14 24 25 22 26 14 22 22
Wind_Direction_850mb
204 211 234 247 228 314 8 113 129 109 116 110 134 130 151 164 164 212 266 284 275 265 267 288 298 301 300 293 282 277 274 276
235 259 271 234 296 15 22 4 166 124 115 100 157 153 159 159 188 160 216 230 230 245 274 296 302 301 295 282 271 269 269 274
260 266 264 267 349 8 353 325 129 155 108 105 138 154 161 171 167 189 211 233 247 263 293 306 309 306 309 296 280 274 272 271
276 281 303 255 39 296 330 319 82 54 108 143 159 171 166 172 172 189 217 241 271 271 281 304 310 311 313 311 304 300 289 278
279 289 309 74 27 312 283 240 83 97 81 144 166 166 173 185 196 203 229 267 271 274 305 296 294 303 303 306 308 311 307 286
279 284 286 298 203 197 257 131 162 179 144 179 175 178 184 201 214 311 277 237 233 249 276 282 290 300 301 309 309 309 309 309
269 277 284 330 11 305 334 228 281 204 167 169 174 189 193 180 212 251 230 193 198 248 277 285 296 301 299 300 305 298 300 309
260 273 292 305 329 332 329 304 281 121 142 168 184 196 187 181 196 218 169 186 243 269 293 298 308 284 289 299 293 290 297 301
261 264 275 292 315 300 293 289 15 163 176 187 185 192 190 209 228 211 207 240 258 282 295 314 315 308 283 264 279 286 285 294
255 262 252 280 296 285 278 260 41 142 184 194 192 196 204 203 202 215 212 227 261 290 302 311 319 321 303 265 264 280 293 292
263 271 252 280 266 267 266 284 270 147 180 198 212 210 215 208 218 213 220 248 274 293 307 320 324 336 329 312 282 286 285 285
261 272 259 257 261 271 253 253 231 230 217 214 218 211 205 198 215 228 239 259 283 292 320 318 328 319 313 317 315 287 278 273
270 268 264 258 252 258 257 242 254 242 221 222 212 218 217 216 221 227 237 261 279 301 308 300 305 307 304 309 310 303 285 278
259 269 266 245 252 237 254 243 253 243 212 219 229 220 214 210 211 221 227 249 267 290 288 285 302 312 315 307 310 307 299 285
263 254 263 243 254 214 228 242 263 232 230 241 234 207 198 196 205 215 220 249 257 281 288 293 309 326 328 332 330 320 309 295
256 254 259 259 242 203 213 225 242 256 243 243 208 189 185 192 201 210 222 253 262 287 298 307 319 331 318 329 336 345 334 310
251 247 252 321 285 216 225 257 240 268 280 255 203 178 182 192 196 205 215 243 263 276 285 312 335 345 343 333 329 333 349 329
272 276 126 229 250 236 223 237 250 255 258 253 170 167 178 186 195 202 213 228 230 264 274 342 348 344 347 334 322 335 342 354
260 276 284 244 233 237 253 264 288 256 247 179 170 170 175 182 191 191 203 213 238 225 275 329 340 343 353 336 340 329 354 355
254 265 256 266 270 289 291 294 298 266 178 165 165 173 178 182 180 189 198 210 197 235 209 289 345 351 358 356 348 327 338 348